TimeMST,TemperatureF,Dew PointF,Humidity,Sea Level PressureIn,VisibilityMPH,Wind Direction,Wind SpeedMPH,Gust SpeedMPH,PrecipitationIn,Events,Conditions,WindDirDegrees,DateUTC
12:55 AM,28.9,19.0,67,29.94,10.0,West,11.5,-,N/A,,Overcast,270,2011-12-28 07:55:00
1:55 AM,30.9,21.0,67,29.93,10.0,West,10.4,-,N/A,,Overcast,270,2011-12-28 08:55:00
2:55 AM,32.0,21.9,66,29.92,10.0,West,8.1,-,N/A,,Overcast,270,2011-12-28 09:55:00
3:55 AM,35.1,21.9,59,29.92,10.0,West,9.2,-,N/A,,Overcast,270,2011-12-28 10:55:00
4:55 AM,32.0,21.0,64,29.91,10.0,West,9.2,-,N/A,,Clear,260,2011-12-28 11:55:00
5:55 AM,30.9,21.0,67,29.92,10.0,West,10.4,-,N/A,,Clear,260,2011-12-28 12:55:00
6:55 AM,28.9,19.9,69,29.92,10.0,West,10.4,-,N/A,,Clear,280,2011-12-28 13:55:00
7:55 AM,28.9,19.9,69,29.91,10.0,West,6.9,-,N/A,,Clear,280,2011-12-28 14:55:00
8:55 AM,30.9,21.0,67,29.88,10.0,West,5.8,-,N/A,,Clear,260,2011-12-28 15:55:00
9:55 AM,39.9,23.0,51,29.86,10.0,WSW,8.1,-,N/A,,Partly Cloudy,250,2011-12-28 16:55:00
10:55 AM,46.9,23.0,39,29.81,10.0,WSW,8.1,-,N/A,,Clear,250,2011-12-28 17:55:00
11:55 AM,48.9,21.9,35,29.75,10.0,SW,16.1,-,N/A,,Partly Cloudy,230,2011-12-28 18:55:00
12:55 PM,51.1,23.0,33,29.74,10.0,West,15.0,23.0,N/A,,Mostly Cloudy,260,2011-12-28 19:55:00
1:55 PM,55.0,23.0,29,29.69,10.0,WSW,15.0,-,N/A,,Clear,240,2011-12-28 20:55:00
2:55 PM,55.0,23.0,29,29.70,10.0,WSW,15.0,20.7,N/A,,Clear,250,2011-12-28 21:55:00
3:55 PM,50.0,24.1,36,29.69,10.0,WSW,11.5,-,N/A,,Clear,240,2011-12-28 22:55:00
4:55 PM,44.1,24.1,45,29.72,10.0,WSW,8.1,-,N/A,,Clear,250,2011-12-28 23:55:00
5:55 PM,43.0,25.0,49,29.73,10.0,WSW,11.5,-,N/A,,Clear,250,2011-12-29 00:55:00
6:55 PM,41.0,25.0,53,29.75,10.0,West,5.8,-,N/A,,Clear,280,2011-12-29 01:55:00
7:55 PM,39.0,25.0,57,29.75,10.0,West,9.2,-,N/A,,Partly Cloudy,260,2011-12-29 02:55:00
8:55 PM,39.0,26.1,60,29.74,10.0,West,8.1,-,N/A,,Clear,270,2011-12-29 03:55:00
9:55 PM,39.0,26.1,60,29.74,10.0,West,11.5,-,N/A,,Clear,260,2011-12-29 04:55:00
10:55 PM,37.9,26.1,62,29.73,10.0,West,9.2,-,N/A,,Clear,260,2011-12-29 05:55:00
11:55 PM,36.0,26.1,67,29.72,10.0,West,9.2,-,N/A,,Clear,260,2011-12-29 06:55:00